Kleine Brogel, Belgium

8:20 PM CEST on August 21, 2018 (GMT +0200)
Kleine-Brogel Air Base

Weather History for EBBL - February, 2018

Change the Weather History Date:

Wednesday, February 14, 2018

  Actual Average Record
Temperature  
Mean Temperature 33 °F -  
Max Temperature 43 °F 46 °F 53 °F (2014)
Min Temperature 23 °F 35 °F 17 °F (1999)
Degree Days  
Heating Degree Days 32    
Moisture  
Dew Point 23 °F    
Average Humidity 61    
Maximum Humidity 86    
Minimum Humidity 34    
Precipitation  
Precipitation 0.00 in - - ()
Sea Level Pressure  
Sea Level Pressure 29.94 in    
Wind  
Wind Speed 3 mph ()    
Max Wind Speed 10 mph    
Max Gust Speed -    
Visibility 8.1 miles    
Events      
Averages and records for this station are not official NWS values.
T = Trace of Precipitation, MM = Missing Value Source: Averaged Metar Reports

Daily Weather History Graph

Daily Weather History Graph

Search for Another Location

Airport or City:

Astronomy

Feb. 14, 2018 Rise Set
Actual Time 7:53 AM CET 5:51 PM CET
Civil Twilight 7:18 AM CET 6:26 PM CET
Nautical Twilight 6:40 AM CET 7:05 PM CET
Astronomical Twilight 6:01 AM CET 7:43 PM CET
Moon 7:14 AM CET (2/14) 4:28 PM CET (2/14)
Length of Visible Light 11h 07m
Length of Day
9h 58m
Waning Crescent, 2% of the Moon is Illuminated
Feb 14
Waning Crescent
Feb 15
New
Feb 23
First Quarter
Mar 2
Full
Mar 9
Last Quarter

Hourly Weather History & Observations

Time (CET) Temp. Windchill Dew Point Humidity Pressure Visibility Wind Dir Wind Speed Gust Speed Precip Events Conditions
12:00 AM 29 °F - 22 °F 66% 29.89 in 12 mi 2.2 mph - -  
12:25 AM 28.4 °F - 23.0 °F 80% 29.86 in 6.2 mi Variable 2.3 mph - N/A   Unknown
12:55 AM 28.4 °F - 21.2 °F 74% 29.89 in 6.2 mi Variable 2.3 mph - N/A   Unknown
1:00 AM 28 °F - 22 °F 70% 29.90 in 12 mi 2.2 mph - -  
1:25 AM 28.4 °F - 21.2 °F 74% 29.89 in 6.2 mi Variable 2.3 mph - N/A   Unknown
1:55 AM 28.4 °F - 21.2 °F 74% 29.89 in 6.2 mi Variable 2.3 mph - N/A   Unknown
2:00 AM 28 °F - 22 °F 69% 29.91 in 12 mi 2.2 mph - -  
2:25 AM 26.6 °F - 21.2 °F 80% 29.89 in 6.2 mi Variable 2.3 mph - N/A   Unknown
2:55 AM 26.6 °F - 21.2 °F 80% 29.89 in 6.2 mi Variable 2.3 mph - N/A   Unknown
3:00 AM 26 °F - 21 °F 72% 29.92 in 12 mi 2.2 mph - -  
3:25 AM 26.6 °F - 21.2 °F 80% 29.89 in 6.2 mi Variable 2.3 mph - N/A   Unknown
3:55 AM 26.6 °F - 21.2 °F 80% 29.89 in 6.2 mi Variable 2.3 mph - N/A   Unknown
4:00 AM 26 °F - 21 °F 72% 29.92 in 12 mi 2.2 mph - -  
4:25 AM 26.6 °F - 21.2 °F 80% 29.92 in 6.2 mi Variable 2.3 mph - N/A   Unknown
4:55 AM 24.8 °F - 19.4 °F 80% 29.92 in 6.2 mi Variable 2.3 mph - N/A   Unknown
5:00 AM 26 °F - 20 °F 70% 29.94 in 12 mi 2.2 mph - -  
5:25 AM 24.8 °F 20.5 °F 19.4 °F 80% 29.92 in 6.2 mi ESE 3.5 mph - N/A   Clear
5:55 AM 24.8 °F - 19.4 °F 80% 29.92 in 6.2 mi Variable 2.3 mph - N/A   Clear
6:00 AM 25 °F - 20 °F 75% 29.95 in 12 mi 2.2 mph - -  
6:25 AM 24.8 °F 20.5 °F 19.4 °F 80% 29.95 in 6.2 mi SE 3.5 mph - N/A   Clear
6:55 AM 24.8 °F - 19.4 °F 80% 29.95 in 6.2 mi Variable 1.2 mph - N/A   Clear
7:00 AM 24 °F - 19 °F 72% 29.97 in 9 mi 2.2 mph - -  
7:25 AM 23.0 °F - 19.4 °F 86% 29.95 in 6.2 mi Variable 2.3 mph - N/A   Clear
7:55 AM 24.8 °F - 19.4 °F 80% 29.95 in 6.2 mi Variable 2.3 mph - N/A   Partly Cloudy
8:00 AM 24 °F - 19 °F 74% 29.98 in 12 mi 2.2 mph - -   Clear
8:25 AM 26.6 °F - 19.4 °F 74% 29.95 in 6.2 mi Variable 2.3 mph - N/A   Partly Cloudy
8:55 AM 28.4 °F - 21.2 °F 74% 29.98 in 6.2 mi Variable 1.2 mph - N/A   Partly Cloudy
9:00 AM 28 °F - 21 °F 65% 29.99 in 12 mi 2.2 mph - -   Clear
9:25 AM 30.2 °F - 21.2 °F 69% 29.98 in 6.2 mi Variable 2.3 mph - N/A   Partly Cloudy
9:55 AM 32.0 °F 27.5 °F 21.2 °F 64% 29.98 in 6.2 mi SSE 4.6 mph - N/A   Partly Cloudy
10:00 AM 32 °F - 22 °F 54% 30.00 in 12 mi SSE 4.5 mph - -   Clear
10:25 AM 33.8 °F 28.6 °F 21.2 °F 60% 29.98 in 6.2 mi SSE 5.8 mph - N/A   Partly Cloudy
10:55 AM 35.6 °F 30.7 °F 21.2 °F 56% 29.98 in 6.2 mi SSE 5.8 mph - N/A   Partly Cloudy
11:00 AM 36 °F - 22 °F 44% 30.00 in 12 mi SSE 4.5 mph - -   Clear
11:25 AM 37.4 °F 33.8 °F 23.0 °F 56% 29.98 in 6.2 mi SE 4.6 mph - N/A   Partly Cloudy
11:55 AM 39.2 °F 33.6 °F 23.0 °F 52% 29.98 in 6.2 mi South 8.1 mph - N/A   Partly Cloudy
12:00 PM 39 °F - 23 °F 40% 30.00 in 12 mi South 6.7 mph - -   Clear
12:25 PM 41.0 °F 36.4 °F 23.0 °F 49% 29.98 in 6.2 mi SSE 6.9 mph - N/A   Partly Cloudy
12:55 PM 41.0 °F 36.4 °F 23.0 °F 49% 29.98 in 6.2 mi South 6.9 mph - N/A   Partly Cloudy
1:00 PM 41 °F - 23 °F 36% 29.99 in 12 mi South 6.7 mph - -   Clear
1:25 PM 41.0 °F 34.7 °F 23.0 °F 49% 29.98 in 6.2 mi South 10.4 mph - N/A   Scattered Clouds
1:55 PM 42.8 °F 37.0 °F 23.0 °F 46% 29.95 in 6.2 mi South 10.4 mph - N/A   Scattered Clouds
2:00 PM 42 °F - 23 °F 34% 29.98 in 12 mi South 8.9 mph - -   Clear
2:25 PM 42.8 °F 37.5 °F 24.8 °F 49% 29.95 in 6.2 mi South 9.2 mph - N/A   Scattered Clouds
2:55 PM 42.8 °F 38.6 °F 24.8 °F 49% 29.95 in 6.2 mi SSE 6.9 mph - N/A   Mostly Cloudy
3:00 PM 43 °F - 24 °F 35% 29.97 in 12 mi SSE 6.7 mph - -   Clear
3:25 PM 42.8 °F 39.3 °F 24.8 °F 49% 29.95 in 6.2 mi South 5.8 mph - N/A   Mostly Cloudy
3:55 PM 42.8 °F 38.6 °F 24.8 °F 49% 29.95 in 6.2 mi SSE 6.9 mph - N/A   Mostly Cloudy
4:00 PM 43 °F - 25 °F 35% 29.98 in 12 mi SSE 6.7 mph - -   Scattered Clouds
4:18 PM 41.0 °F 36.4 °F 24.8 °F 53% 29.95 in 6.2 mi South 6.9 mph - N/A   Mostly Cloudy
4:25 PM 41.0 °F 36.4 °F 23.0 °F 49% 29.95 in 6.2 mi South 6.9 mph - N/A   Partly Cloudy
4:55 PM 41.0 °F 35.8 °F 24.8 °F 53% 29.98 in 6.2 mi South 8.1 mph - N/A   Mostly Cloudy
5:00 PM 40 °F - 25 °F 42% 29.98 in 12 mi South 6.7 mph - -   Mostly Cloudy
5:55 PM 37.4 °F 34.9 °F 24.8 °F 60% 29.95 in 6.2 mi SSE 3.5 mph - N/A   Mostly Cloudy
6:00 PM 38 °F - 25 °F 48% 29.98 in 12 mi 2.2 mph - -   Partly Cloudy
6:25 PM 37.4 °F 33.8 °F 24.8 °F 60% 29.95 in 6.2 mi SE 4.6 mph - N/A   Mostly Cloudy
6:55 PM 37.4 °F 33.8 °F 24.8 °F 60% 29.95 in 6.2 mi SSE 4.6 mph - N/A   Overcast
7:00 PM 38 °F - 25 °F 47% 29.98 in 12 mi SSE 4.5 mph - -   Overcast
7:25 PM 37.4 °F 33.8 °F 24.8 °F 60% 29.95 in 6.2 mi SSE 4.6 mph - N/A   Overcast
7:55 PM 37.4 °F 33.8 °F 24.8 °F 60% 29.95 in 6.2 mi SSE 4.6 mph - N/A   Overcast
8:00 PM 37 °F - 25 °F 50% 29.96 in 12 mi SSE 4.5 mph - -   Overcast
8:25 PM 37.4 °F 33.8 °F 24.8 °F 60% 29.95 in 6.2 mi SE 4.6 mph - N/A   Overcast
8:55 PM 37.4 °F 33.8 °F 24.8 °F 60% 29.92 in 6.2 mi SE 4.6 mph - N/A   Overcast
9:00 PM 37 °F - 25 °F 51% 29.95 in 12 mi SE 4.5 mph - -   Overcast
9:25 PM 37.4 °F 34.9 °F 24.8 °F 60% 29.92 in 6.2 mi SE 3.5 mph - N/A   Overcast
9:55 PM 37.4 °F 34.9 °F 24.8 °F 60% 29.92 in 6.2 mi SE 3.5 mph - N/A   Overcast
10:00 PM 37 °F - 25 °F 49% 29.94 in 12 mi 2.2 mph - -   Overcast
10:25 PM 37.4 °F 33.8 °F 24.8 °F 60% 29.89 in 6.2 mi SE 4.6 mph - N/A   Overcast
10:55 PM 37.4 °F 33.8 °F 24.8 °F 60% 29.89 in 6.2 mi SSE 4.6 mph - N/A   Overcast
11:00 PM 38 °F - 24 °F 45% 29.91 in 12 mi SSE 4.5 mph - -   Overcast
11:25 PM 39.2 °F 35.0 °F 24.8 °F 56% 29.89 in 6.2 mi SSE 5.8 mph - N/A   Overcast
11:55 PM 39.2 °F 34.2 °F 24.8 °F 56% 29.89 in 6.2 mi SSE 6.9 mph - N/A   Overcast